User: anonymous   Login
Location: Remedello Sotto
(45.2500°N, 10.3667°E)
Time: 14:51:32
(UTC+00:00)
Language:

CZ-4B DEB - Orbit

View from above orbital plane
View from above orbital plane
View from above satellite
View from above satellite

Ground track
Ground track

The orbit data is extracted from the following two-line orbital elements,

1 27433U 02024D   23161.35130965  .00000476  00000-0  27936-3 0  9999
2 27433  99.0504 187.8364 0014900  25.8639 334.3275 14.13022159 85505
Epoch (UTC): 10 June 2023 08:25:53
Eccentricity: 0.0014900
inclination: 99.0504°
perigee height: 838 km
apogee height: 860 km
right ascension of ascending node: 187.8364°
argument of perigee: 25.8639°
revolutions per day: 14.13022159
mean anomaly at epoch: 334.3275°
orbit number at epoch: 8550

The dashed part of the orbit path shows where the satellite is in the earth's shadow,  

DLR